#timestamp,LO_Frequency,Hit,StdDev 
1508738415.4,286047003.2,N
1508738435.2,286047003.2,N
1508738455.1,286047003.2,N
1508738456.0,286047003.2,N
1508738475.8,286047002.5,N
1508738495.6,286047001.5,N
1508738515.5,286047002.6,N
1508738535.3,286047001.0,N
1508738555.1,286047006.6,Y
1508738575.9,286047006.5,P
1508738595.7,286047011.7,P
1508738615.5,286047011.7,N
1508738635.4,286047013.1,Y
1508738655.2,286047009.3,P
1508738675.1,286047008.1,P
1508738676.0,286047008.1,P
1508738695.8,286047011.9,Y
1508738715.6,286047001.8,P
1508738735.5,286047004.5,N
1508738755.3,286047007.6,N
1508738775.2,286047010.3,Y
1508738795.9,286047001.8,P
1508738815.7,286047005.2,N
1508738835.6,286047008.2,P
1508738855.4,286047008.1,Y
1508738875.2,286047006.4,P
1508738895.1,286047007.0,P
1508738896.0,286047007.0,P
1508738915.8,286047008.4,Y
1508738935.6,286047002.0,P
1508738955.5,286047002.8,N
1508738975.3,286046998.7,N
1508738995.1,286046997.2,N
1508739015.9,286047001.0,N
1508739035.7,286047000.8,N
1508739055.5,286046999.1,N
1508739075.4,286046998.5,N
1508739095.2,286047001.8,N
1508739115.0,286047004.4,N
1508739116.0,286047004.4,N
1508739135.8,286047002.8,N
1508739155.6,286047002.7,N
1508739175.5,286047003.8,N
1508739195.3,286047002.5,N
1508739215.1,286046999.5,N
1508739235.9,286047001.0,N
1508739255.7,286047002.6,N
1508739275.5,286047000.5,N
1508739295.4,286047000.1,N
1508739315.2,286047000.5,N
1508739335.0,286047006.9,Y
1508739335.9,286047006.9,P
1508739355.8,286047003.7,N
1508739375.6,286047003.8,N
1508739395.4,286047001.9,N
1508739415.3,286047001.4,N
1508739435.1,286047003.6,N
1508739455.8,286047004.9,N
1508739475.7,286047006.9,Y
1508739495.5,286047005.8,P
1508739515.3,286047004.5,P
1508739535.2,286047005.4,P
1508739555.0,286046998.5,N
1508739555.9,286046998.5,N
1508739575.8,286047000.3,N
1508739595.6,286047004.0,N
1508739615.4,286047007.2,N
1508739635.3,286047005.2,N
1508739655.1,286047004.6,N
1508739675.8,286047005.5,N
1508739695.7,286047005.8,N
1508739715.5,286047005.8,N
1508739735.3,286047004.4,N
1508739755.2,286047005.8,N
1508739775.0,286047002.0,N
1508739775.9,286047002.0,N
1508739795.7,286047002.3,N
1508739815.6,286047003.8,N
1508739835.4,286047006.6,N
1508739855.2,286047007.0,N
1508739875.1,286047003.1,N
1508739876.0,286047003.1,N
1508739895.8,286047001.5,N
1508739915.6,286047002.8,N
1508739935.5,286047002.4,N
1508739955.3,286047000.9,N
1508739975.1,286046998.1,N
1508739995.9,286047002.1,N
1508740015.7,286047000.2,N
1508740035.6,286047004.0,N
1508740055.4,286047000.2,N
1508740075.2,286046998.0,N
1508740095.1,286047000.8,N
1508740096.0,286047000.8,N
1508740115.8,286047000.1,N
1508740135.6,286046999.9,N
1508740155.5,286046997.8,N
1508740175.3,286046999.6,N
1508740195.1,286046999.7,N
1508740215.9,286047002.7,N
1508740235.7,286047001.9,N
1508740255.5,286047007.1,N
1508740275.4,286047002.4,N
1508740295.2,286047002.0,N
1508740315.0,286047005.8,N
1508740315.9,286047005.8,N
1508740335.8,286047004.4,N
1508740355.6,286047005.7,N
1508740375.4,286047002.0,N
1508740395.3,286047001.6,N
1508740415.1,286047003.4,N
1508740416.0,286047003.4,N
1508740435.8,286047004.0,N
1508740455.7,286047002.1,N
1508740475.5,286047002.8,N
1508740495.3,286046998.4,N
1508740515.2,286046997.0,N
1508740535.0,286047001.2,N
1508740535.9,286047001.2,N
1508740555.7,286047000.6,N
1508740575.6,286046998.8,N
1508740595.4,286046998.8,N
1508740615.2,286046998.3,N
1508740635.1,286046998.9,N
1508740636.0,286046998.9,N
1508740655.8,286047000.7,N
1508740675.7,286046999.0,N
1508740695.5,286046997.6,N
1508740715.3,286046996.1,N
1508740735.2,286046995.0,N
1508740755.9,286046999.4,N
1508740775.7,286046999.1,N
1508740795.6,286047000.5,N
1508740815.4,286046997.9,N
1508740835.2,286046993.7,N
1508740855.1,286046995.1,N
1508740856.0,286046995.1,N
1508740875.8,286046993.4,N
1508740895.6,286046994.2,N
1508740915.5,286046993.6,N
1508740935.3,286046991.7,N
1508740955.1,286046992.5,N
1508740975.9,286046990.6,N
1508740995.7,286046990.3,Y
1508741015.5,286046992.6,P
1508741035.4,286046992.7,P
1508741055.2,286046991.7,P
1508741075.0,286046997.8,N
1508741075.9,286046997.8,N
1508741095.8,286046999.4,N
1508741115.6,286047000.7,N
1508741135.4,286046999.8,N
1508741155.3,286046997.7,N
1508741175.1,286046996.9,N
1508741195.8,286047001.2,N
1508741215.7,286046997.6,N
1508741235.5,286046996.7,N
1508741255.3,286046993.7,N
1508741275.2,286046996.0,N
1508741295.0,286046996.8,N
1508741295.9,286046996.8,N
1508741315.7,286046994.9,N
1508741335.6,286046995.5,N
1508741355.4,286046997.6,N
1508741375.2,286046999.1,N
1508741395.1,286046995.3,N
1508741396.0,286046995.3,N
1508741415.8,286046993.5,N
1508741435.6,286046996.8,N
1508741455.5,286046994.2,N
1508741475.3,286046993.2,N
1508741495.2,286046990.2,Y
1508741515.9,286046995.7,P
1508741535.7,286046995.1,P
1508741555.6,286046992.1,P
1508741575.4,286046992.2,Y
1508741595.2,286047004.3,P
1508741615.1,286046999.2,N
1508741616.0,286046999.2,N
1508741635.8,286046997.0,N
1508741655.6,286046999.5,N
1508741675.5,286046998.2,N
1508741695.3,286047002.4,N
1508741715.1,286047002.7,N
1508741735.9,286047000.1,N
1508741755.7,286047003.1,N
1508741775.5,286047007.0,N
1508741795.4,286047001.8,N
1508741815.2,286047002.7,N
1508741835.0,286047000.9,N
1508741835.9,286047000.9,N
1508741855.8,286047000.0,N
1508741875.6,286047005.8,N
1508741895.5,286047009.0,Y
1508741915.3,286047003.1,P
1508741935.1,286047003.0,N
1508741955.9,286047000.0,N
1508741975.7,286047004.4,Y
1508741995.5,286046999.6,P
